This is the latest recevied weather packets stored in our database for station/object SQ9RHX-13. If no packets are shown the sender has not sent any weather packets the latest 10 day(s).
| Time | Temp. | Humidity | Pressure | Rain* | Wind** | Luminosity | Snow |
|---|---|---|---|---|---|---|---|
| 1778085004 | 22.78° C | 42% | 1008.5 hPa | 0 mm | - | 30 W/m² | - |
| 1778084704 | 22.78° C | 42% | 1008.6 hPa | 0 mm | - | 48 W/m² | - |
| 1778084403 | 22.78° C | 42% | 1008.5 hPa | 0 mm | - | 68 W/m² | - |
| 1778084104 | 22.78° C | 43% | 1008.7 hPa | 0 mm | - | 59 W/m² | - |
| 1778083802 | 22.78° C | 42% | 1008.6 hPa | 0 mm | - | 53 W/m² | - |
| 1778083505 | 22.78° C | 40% | 1008.6 hPa | 0 mm | - | 63 W/m² | - |
| 1778083204 | 23.33° C | 40% | 1008.9 hPa | 0 mm | - | 75 W/m² | - |
| 1778082903 | 23.33° C | 40% | 1008.8 hPa | 0 mm | - | 84 W/m² | - |
| 1778082606 | 23.89° C | 39% | 1008.7 hPa | 0 mm | - | 75 W/m² | - |
| 1778082303 | 25° C | 38% | 1008.7 hPa | 0 mm | - | 100 W/m² | - |
| 1778082003 | 25° C | 37% | 1008.8 hPa | 0 mm | - | 123 W/m² | - |
| 1778081703 | 25° C | 37% | 1008.6 hPa | 0 mm | - | 224 W/m² | - |
| 1778081404 | 25° C | 37% | 1008.7 hPa | 0 mm | - | 203 W/m² | - |
| 1778081105 | 25° C | 37% | 1008.7 hPa | 0 mm | - | 176 W/m² | - |
| 1778080803 | 25° C | 37% | 1008.8 hPa | 0 mm | - | 210 W/m² | - |
| 1778080506 | 25.56° C | 36% | 1008.9 hPa | 0 mm | - | 216 W/m² | - |
| 1778080204 | 25.56° C | 37% | 1008.8 hPa | 0 mm | - | 234 W/m² | - |
| 1778079903 | 25° C | 37% | 1008.9 hPa | 0 mm | - | 241 W/m² | - |
| 1778079603 | 24.44° C | 39% | 1009 hPa | 0 mm | - | 257 W/m² | - |
| 1778079303 | 24.44° C | 38% | 1009.1 hPa | 0 mm | - | 276 W/m² | - |
| 1778079004 | 25° C | 37% | 1009.1 hPa | 0 mm | - | 178 W/m² | - |
| 1778078705 | 25.56° C | 38% | 1009 hPa | 0 mm | - | 298 W/m² | - |
| 1778078405 | 25° C | 39% | 1009.1 hPa | 0 mm | - | 312 W/m² | - |
| 1778078103 | 25° C | 40% | 1009.1 hPa | 0 mm | - | 325 W/m² | - |
| 1778077803 | 24.44° C | 39% | 1009.4 hPa | 0 mm | - | 346 W/m² | - |
* Rain latest hour (hover to see other rain measurements)
** Current wind speed in m/s (hover to see current wind gust speed)